Flag for Mauritania Weather past 2 weeks in Nouadhibou, Mauritania

Now
68 °F

Passing clouds.


Feels Like: 68 °F
Forecast: 69 / 81 °F
Wind: 15 mph from North

Location: Nouadhibou Airport

Current Time: Jul 25, 2014 at 7:01:06 AM

Latest Report: Jul 25, 2014 at 6:00 AM


Visibility: 5 mi

Pressure: 29.92 "Hg

Humidity: 78%

Dew point: 61 °F

Location of NouadhibouLocation

Historic Weather in Nouadhibou — Graph

°F

Nouadhibou temperature yesterday

Maximum temperature yesterday: 86 °F (at 1:00 PM)
Minimum temperature yesterday: 68 °F (at 5:00 AM)
Average temperature yesterday: 73 °F

Past Weeks' High & Low Weather Summary

 TemperatureHumidityPressure
High88 °F (Jul 13, 12:00 PM)100% (Jul 11, 9:00 AM)30.07 "Hg (Jul 11, 9:00 AM)
Low66 °F (Jul 10, 6:00 AM)43% (Jul 13, 12:00 PM)29.86 "Hg (Jul 21, 6:00 PM)
Average72 °F78%29.96 "Hg
* Reported Jul 10 6:00 AM — Jul 25 6:00 AM, Nouadhibou, Weather by CustomWeather, © 2014

Note: Actual official high and low records may vary slightly from our data, if they occured in-between our weather recording intervals... More about our weather records

Advertising

Nouadhibou weather history for previous 24 hours

 ConditionsComfort  
Time TempWeatherWind HumidityBarometerVisibility
6:00 AM
Jul 25
68 °FPassing clouds.15 mph78%29.92 "Hg5 mi
5:00 AM68 °FPassing clouds.17 mph83%29.89 "Hg5 mi
4:00 AM68 °FPassing clouds.18 mph78%29.89 "Hg5 mi
3:00 AM68 °FPassing clouds.18 mph78%29.92 "Hg5 mi
2:00 AM70 °FPassing clouds.18 mph73%29.92 "Hg5 mi
1:00 AM70 °FPassing clouds.16 mph73%29.95 "Hg5 mi
12:00 AM70 °FClear.18 mph73%29.95 "Hg5 mi
11:00 PM
Jul 24
70 °FClear.18 mph73%29.95 "Hg5 mi
10:00 PM70 °FClear.16 mph73%29.92 "Hg5 mi
9:00 PM70 °FClear.16 mph73%29.92 "Hg5 mi
8:00 PM72 °FSandstorm.17 mph73%29.89 "Hg4 mi
7:00 PM73 °FSandstorm.18 mph69%29.89 "Hg4 mi
6:00 PM75 °FSandstorm.20 mph65%29.89 "Hg4 mi
5:00 PM77 °FSandstorm.22 mph65%29.89 "Hg4 mi
4:00 PM77 °FSandstorm.20 mph65%29.89 "Hg4 mi
3:00 PM79 °FClear.18 mph61%29.92 "Hg5 mi
2:00 PM81 °FClear.16 mph58%29.95 "Hg5 mi
1:00 PM86 °FSunny.22 mph43%29.95 "Hg10 mi
12:00 PM82 °FSunny.23 mph51%29.98 "Hg10 mi
11:00 AM79 °FSunny.24 mph58%29.98 "Hg10 mi
10:00 AM75 °FSunny.25 mph69%29.98 "Hg10 mi
9:00 AM72 °FSunny.21 mph78%29.98 "Hg10 mi
8:00 AM68 °FClear.15 mph88%29.98 "Hg5 mi
7:00 AM68 °FClear.17 mph88%29.95 "Hg5 mi
Weather by CustomWeather, © 2014

See weather overviewHow to use our weather pages